EN

Hourly Weather Poim

Today, 24 October, Saturday

Time Temperature Precipitation Wind Pressure Humidity
00:00 +11°C° 1.2 mm 6 mps 743 mmHg 94%
01:00 +11°C° 0.3 mm 6 mps 743 mmHg 93%
02:00 +11°C° 0.3 mm 6 mps 742 mmHg 92%
03:00 +12°C° 0.3 mm 5 mps 742 mmHg 91%
04:00 +10°C° 0.1 mm 5 mps 742 mmHg 92%
05:00 +10°C° 0.1 mm 5 mps 742 mmHg 93%
06:00 +10°C° 0.1 mm 5 mps 742 mmHg 95%
07:00 +10°C° 0 mm 5 mps 742 mmHg 92%
08:00 +10°C° 0 mm 5 mps 743 mmHg 90%
09:00 +10°C° 0 mm 5 mps 743 mmHg 88%
10:00 +12°C° 0 mm 5 mps 743 mmHg 84%
11:00 +12°C° 0 mm 5 mps 743 mmHg 80%
12:00 +13°C° 0 mm 5 mps 744 mmHg 76%
13:00 +12°C° 0 mm 4 mps 744 mmHg 75%
14:00 +12°C° 0 mm 4 mps 744 mmHg 74%
15:00 +12°C° 0 mm 4 mps 745 mmHg 73%
16:00 +11°C° 0 mm 3 mps 745 mmHg 77%
17:00 +12°C° 0 mm 2 mps 745 mmHg 81%
18:00 +10°C° 0 mm 2 mps 745 mmHg 85%
19:00 +10°C° 0 mm 1 mps 745 mmHg 86%
20:00 +10°C° 0 mm 1 mps 745 mmHg 87%
21:00 +10°C° 0 mm 1 mps 745 mmHg 89%
22:00 +10°C° 0 mm 1 mps 745 mmHg 88%
23:00 +10°C° 0 mm 1 mps 745 mmHg 88%

Tomorrow, 25 October, Sunday

Time Temperature Precipitation Wind Pressure Humidity
00:00 +10°C° 0 mm 1 mps 745 mmHg 87%
01:00 +9°C° 0.2 mm 2 mps 744 mmHg 89%
02:00 +9°C° 0.2 mm 2 mps 744 mmHg 91%
03:00 +9°C° 0.2 mm 3 mps 744 mmHg 92%
04:00 +9°C° 1.1 mm 2 mps 743 mmHg 94%
05:00 +9°C° 1.1 mm 2 mps 742 mmHg 96%
06:00 +9°C° 1.1 mm 2 mps 742 mmHg 98%
07:00 +9°C° 3 mm 2 mps 742 mmHg 98%
08:00 +9°C° 3 mm 2 mps 742 mmHg 98%
09:00 +9°C° 3 mm 2 mps 741 mmHg 98%
10:00 +8°C° 1.1 mm 4 mps 742 mmHg 94%
11:00 +8°C° 1.1 mm 6 mps 742 mmHg 90%
12:00 +8°C° 1.1 mm 7 mps 742 mmHg 86%
13:00 +8°C° 0 mm 7 mps 743 mmHg 82%
14:00 +9°C° 0 mm 6 mps 744 mmHg 79%
15:00 +9°C° 0 mm 6 mps 745 mmHg 75%
16:00 +8°C° 0 mm 5 mps 746 mmHg 80%
17:00 +7°C° 0 mm 4 mps 746 mmHg 85%
18:00 +7°C° 0 mm 3 mps 747 mmHg 90%
19:00 +7°C° 0 mm 3 mps 748 mmHg 91%
20:00 +7°C° 0 mm 3 mps 748 mmHg 91%
21:00 +7°C° 0 mm 3 mps 749 mmHg 92%
22:00 +5°C° 0 mm 3 mps 749 mmHg 92%
23:00 +5°C° 0 mm 3 mps 750 mmHg 92%

Day after tomorrow, 26 October, Monday

Time Temperature Precipitation Wind Pressure Humidity
00:00 +4°C° 0 mm 3 mps 750 mmHg 93%
01:00 +4°C° 0 mm 3 mps 750 mmHg 93%
02:00 +4°C° 0 mm 3 mps 751 mmHg 93%
03:00 +4°C° 0 mm 2 mps 751 mmHg 93%
04:00 +4°C° 0 mm 2 mps 752 mmHg 93%
05:00 +4°C° 0 mm 2 mps 752 mmHg 92%
06:00 +4°C° 0 mm 2 mps 752 mmHg 92%
07:00 +5°C° 0 mm 2 mps 752 mmHg 90%
08:00 +5°C° 0 mm 2 mps 752 mmHg 89%
09:00 +5°C° 0 mm 3 mps 753 mmHg 87%
10:00 +7°C° 0 mm 3 mps 753 mmHg 83%
11:00 +9°C° 0 mm 3 mps 753 mmHg 78%
12:00 +10°C° 0 mm 4 mps 753 mmHg 74%
13:00 +10°C° 0 mm 4 mps 753 mmHg 72%
14:00 +11°C° 0 mm 4 mps 753 mmHg 70%
15:00 +11°C° 0 mm 4 mps 753 mmHg 68%
16:00 +10°C° 0 mm 3 mps 754 mmHg 74%
17:00 +9°C° 0 mm 3 mps 754 mmHg 79%
18:00 +8°C° 0 mm 3 mps 754 mmHg 84%
19:00 +7°C° 0 mm 3 mps 755 mmHg 85%
20:00 +5°C° 0 mm 3 mps 755 mmHg 85%
21:00 +5°C° 0 mm 3 mps 756 mmHg 86%
22:00 +4°C° 0 mm 3 mps 756 mmHg 86%
23:00 +4°C° 0 mm 2 mps 756 mmHg 86%

, 27 October, Tuesday

Time Temperature Precipitation Wind Pressure Humidity
00:00 +3°C° 0 mm 2 mps 756 mmHg 86%
01:00 +3°C° 0 mm 2 mps 757 mmHg 86%
02:00 +3°C° 0 mm 2 mps 757 mmHg 86%
03:00 +2°C° 0 mm 2 mps 757 mmHg 86%
04:00 +2°C° 0 mm 2 mps 757 mmHg 85%
05:00 +1°C° 0 mm 2 mps 758 mmHg 85%
06:00 +1°C° 0 mm 2 mps 758 mmHg 84%
07:00 +2°C° 0 mm 2 mps 758 mmHg 81%
08:00 +2°C° 0 mm 2 mps 759 mmHg 78%
09:00 +2°C° 0 mm 2 mps 759 mmHg 75%
10:00 +3°C° 0 mm 2 mps 759 mmHg 70%
11:00 +5°C° 0 mm 2 mps 759 mmHg 64%
12:00 +6°C° 0 mm 2 mps 759 mmHg 58%
13:00 +6°C° 0 mm 2 mps 759 mmHg 57%
14:00 +6°C° 0 mm 2 mps 759 mmHg 56%
15:00 +7°C° 0 mm 2 mps 759 mmHg 55%
16:00 +6°C° 0 mm 2 mps 759 mmHg 59%
17:00 +5°C° 0 mm 2 mps 759 mmHg 64%
18:00 +4°C° 0 mm 2 mps 760 mmHg 68%
19:00 +4°C° 0 mm 2 mps 760 mmHg 70%
20:00 +3°C° 0 mm 3 mps 760 mmHg 71%
21:00 +2°C° 0 mm 3 mps 760 mmHg 73%
22:00 +2°C° 0 mm 3 mps 760 mmHg 73%
23:00 +2°C° 0 mm 3 mps 760 mmHg 74%

27 October, Tuesday

Time Temperature Precipitation Wind Pressure Humidity
00:00 +3°C° 0 mm 2 mps 756 mmHg 86%
01:00 +3°C° 0 mm 2 mps 757 mmHg 86%
02:00 +3°C° 0 mm 2 mps 757 mmHg 86%
03:00 +2°C° 0 mm 2 mps 757 mmHg 86%
04:00 +2°C° 0 mm 2 mps 757 mmHg 85%
05:00 +1°C° 0 mm 2 mps 758 mmHg 85%
06:00 +1°C° 0 mm 2 mps 758 mmHg 84%
07:00 +2°C° 0 mm 2 mps 758 mmHg 81%
08:00 +2°C° 0 mm 2 mps 759 mmHg 78%
09:00 +2°C° 0 mm 2 mps 759 mmHg 75%
10:00 +3°C° 0 mm 2 mps 759 mmHg 70%
11:00 +5°C° 0 mm 2 mps 759 mmHg 64%
12:00 +6°C° 0 mm 2 mps 759 mmHg 58%
13:00 +6°C° 0 mm 2 mps 759 mmHg 57%
14:00 +6°C° 0 mm 2 mps 759 mmHg 56%
15:00 +7°C° 0 mm 2 mps 759 mmHg 55%
16:00 +6°C° 0 mm 2 mps 759 mmHg 59%
17:00 +5°C° 0 mm 2 mps 759 mmHg 64%
18:00 +4°C° 0 mm 2 mps 760 mmHg 68%
19:00 +4°C° 0 mm 2 mps 760 mmHg 70%
20:00 +3°C° 0 mm 3 mps 760 mmHg 71%
21:00 +2°C° 0 mm 3 mps 760 mmHg 73%
22:00 +2°C° 0 mm 3 mps 760 mmHg 73%
23:00 +2°C° 0 mm 3 mps 760 mmHg 74%

28 October, Wednesday

Time Temperature Precipitation Wind Pressure Humidity
00:00 +1°C° 0 mm 3 mps 760 mmHg 74%
01:00 +1°C° 0 mm 3 mps 760 mmHg 74%
02:00 +1°C° 0 mm 3 mps 760 mmHg 74%
03:00 +1°C° 0 mm 3 mps 760 mmHg 73%
04:00 0°C° 0 mm 3 mps 761 mmHg 73%
05:00 0°C° 0 mm 3 mps 761 mmHg 73%
06:00 0°C° 0 mm 3 mps 761 mmHg 73%
07:00 0°C° 0 mm 3 mps 761 mmHg 69%
08:00 +1°C° 0 mm 3 mps 761 mmHg 65%
09:00 +1°C° 0 mm 4 mps 761 mmHg 62%
10:00 +3°C° 0 mm 4 mps 761 mmHg 57%
11:00 +4°C° 0 mm 4 mps 761 mmHg 52%
12:00 +5°C° 0 mm 4 mps 761 mmHg 47%
13:00 +6°C° 0 mm 4 mps 761 mmHg 46%
14:00 +7°C° 0 mm 3 mps 761 mmHg 45%
15:00 +7°C° 0 mm 3 mps 761 mmHg 44%
16:00 +5°C° 0 mm 3 mps 761 mmHg 47%
17:00 +4°C° 0 mm 3 mps 761 mmHg 51%
18:00 +3°C° 0 mm 3 mps 761 mmHg 55%
19:00 +3°C° 0 mm 3 mps 761 mmHg 55%
20:00 +2°C° 0 mm 3 mps 761 mmHg 55%
21:00 +2°C° 0 mm 3 mps 761 mmHg 55%
22:00 +1°C° 0 mm 3 mps 761 mmHg 56%
23:00 +1°C° 0 mm 3 mps 761 mmHg 58%

29 October, Thursday

Time Temperature Precipitation Wind Pressure Humidity
00:00 0°C° 0 mm 3 mps 761 mmHg 60%
01:00 0°C° 0 mm 3 mps 761 mmHg 62%
02:00 0°C° 0 mm 3 mps 761 mmHg 63%
03:00 -1°C° 0 mm 3 mps 761 mmHg 65%
04:00 -1°C° 0 mm 3 mps 761 mmHg 67%
05:00 -1°C° 0 mm 3 mps 761 mmHg 68%
06:00 -1°C° 0 mm 3 mps 760 mmHg 69%
07:00 -1°C° 0 mm 4 mps 761 mmHg 66%
08:00 0°C° 0 mm 4 mps 761 mmHg 63%
09:00 +1°C° 0 mm 5 mps 761 mmHg 60%
10:00 +2°C° 0 mm 5 mps 760 mmHg 56%
11:00 +3°C° 0 mm 5 mps 760 mmHg 52%
12:00 +6°C° 0 mm 5 mps 760 mmHg 48%
13:00 +6°C° 0 mm 5 mps 760 mmHg 47%
14:00 +7°C° 0 mm 5 mps 759 mmHg 46%
15:00 +7°C° 0 mm 5 mps 759 mmHg 45%
16:00 +6°C° 0 mm 5 mps 759 mmHg 48%
17:00 +5°C° 0 mm 5 mps 759 mmHg 50%
18:00 +3°C° 0 mm 5 mps 758 mmHg 53%
19:00 +3°C° 0 mm 5 mps 758 mmHg 53%
20:00 +2°C° 0 mm 5 mps 758 mmHg 54%
21:00 +2°C° 0 mm 5 mps 758 mmHg 54%
22:00 +2°C° 0 mm 5 mps 758 mmHg 55%
23:00 +2°C° 0 mm 5 mps 758 mmHg 56%
Show more

We Need Your Consent

Meteoprog and our Service Providers may store and access personal data such as cookies, device identifiers or other similar technologies on your device and process such data to personalise content and ads, as well as provide social media features and to analyse the traffic.

  • Store and/or access information on your device

    Cookies, device identifiers or other information can be stored or accessed on your device for the purposes indicated above.

  • Personalised ads and content, ad and content measurement, audience insights, and products development

    Ads and content can be personalised based on a profile. More data can be added to better personalise ads and content. Ad and content performance can be measured. Insights about the audience who saw the ads and content can be derived. Such data can be used to develop or improve user’s experience, systems and software.

By clicking ‘I Agree’ you will allow the use of indicated cookies, device identifiers, web beacons or other similar technologies. Your settings can be changed in the browser on your device.

For certain purposes, legitimate interests may be relied on, rather than consent. You can read more about this in our Privacy and Cookie Policy.